Skip Page Navigation
NASA JPL Caltech
NASA Logo - Jet Propulsion Laboratory + View the NASA Portal
+ Center for Near-Earth Object Studies
JPL Home Earth Solar System Stars & Galaxies Technology
JPL Solar System Dynamics
BODIES ORBITS EPHEMERIDES TOOLS PHYSICAL DATA DISCOVERY FAQ SITE MAP
JPL Small-Body Database Browser
Search: [ help ]  
684 Hildburg (A909 PB)
Classification: Main-belt Asteroid          SPK-ID: 2000684
Ephemeris | Orbit Diagram | Orbital Elements | Mission Design | Physical Parameters | Discovery Circumstances ]

[ show orbit diagram ]
Orbital Elements at Epoch 2459000.5 (2020-May-31.0) TDB
Reference: JPL 45 (heliocentric ecliptic J2000)
 Element Value Uncertainty (1-sigma)   Units 
e .03518206871476867 3.3377e-08  
a 2.431681764319193 6.9721e-09 au
q 2.346130169394465 8.0944e-08 au
i 5.52241678032498 4.3357e-06 deg
node 336.3587872626605 3.787e-05 deg
peri 290.4443189786259 7.3894e-05 deg
M 122.8022235289966 6.3584e-05 deg
tp 2458528.043026630651
(2019-Feb-13.54302663)
0.00024449 TDB
period 1385.027937810951
3.79
5.9567e-06
1.631e-08
d
yr
n .2599225547529267 1.1179e-09 deg/d
Q 2.51723335924392 7.2174e-09 au
  Orbit Determination Parameters
   # obs. used (total)      2992  
   data-arc span      40626 days (111.23 yr)  
   first obs. used      1909-08-19  
   last obs. used      2020-11-10  
   planetary ephem.      DE431  
   SB-pert. ephem.      SB431-N16  
   condition code      0  
   norm. resid. RMS      .41734  
   source      ORB  
   producer      Otto Matic  
   solution date      2020-Dec-18 01:55:21  

Additional Information
 Earth MOID = 1.33694 au 
 Jupiter MOID = 2.51163 au 
 T_jup = 3.500 
[ hide covariance matrix ]
Orbital Elements at Epoch 2456349.5 (2013-Feb-26.0) TDB
Reference: JPL 45 (heliocentric ecliptic J2000)
 Element Value Uncertainty (1-sigma)   Units 
e .03467650919568299 3.3258e-08  
q 2.348702962590534 8.0567e-08 au
tp 2455756.165770409441
(2011-Jul-13.66577041)
0.0002483 TDB
node 336.5190972459684 3.7909e-05 deg
peri 290.234950733523 7.4783e-05 deg
i 5.518798202786908 4.333e-06 deg
  Orbit Determination Parameters
   # obs. used (total)      2992  
   data-arc span      40626 days (111.23 yr)  
   first obs. used      1909-08-19  
   last obs. used      2020-11-10  
   planetary ephem.      DE431  
   SB-pert. ephem.      SB431-N16  
   condition code      0  
   norm. resid. RMS      .41734  
   source      ORB  
   producer      Otto Matic  
   solution date      2020-Dec-18 01:55:21  

Additional Information
 Jupiter MOID = 2.51163 au 
 T_jup = 3.500 
Orbit Covariance (6×6)
  e q tp node peri i
e 1.106083937833938E-15 -2.670054637501601E-15 1.065670586765216E-12 -2.938152846200753E-15 2.728358834307728E-13 1.150214379884592E-16
q -2.670054637501601E-15 6.491084679236655E-15 -2.53511252389434E-12 7.106876525659135E-15 -6.467670082518774E-13 -4.527372263498525E-16
tp 1.065670586765216E-12 -2.53511252389434E-12 6.1654966328648E-8 -2.89877635613942E-11 1.601880709480605E-8 -3.588826358715686E-12
node -2.938152846200753E-15 7.106876525659135E-15 -2.89877635613942E-11 1.437094375320204E-9 -1.437109273523801E-9 7.628832757414629E-12
peri 2.728358834307728E-13 -6.467670082518774E-13 1.601880709480605E-8 -1.437109273523801E-9 5.592536166855154E-9 -8.564699396938061E-12
i 1.150214379884592E-16 -4.527372263498525E-16 -3.588826358715686E-12 7.628832757414629E-12 -8.564699396938061E-12 1.877453908736703E-11

Ephemeris | Orbit Diagram | Orbital Elements | Mission Design | Physical Parameters | Discovery Circumstances ]

Physical Parameter Table
Parameter Symbol Value Units Sigma Reference Notes
absolute magnitude H 10.8   n/a MPO448917  
diameter diameter 19.040 km 0.188 urn:nasa:pds:neowise_diameters_albedos::2.0[mainbelt] (http://adsabs.harvard.edu/abs/2014ApJ...791..121M)  
rotation period rot_per 15.89 h n/a LCDB (Rev. 2020-October); Warner et al., 2009 Result based on less than full coverage, so that the period may be wrong by 30 percent or so.
Published Reference List:
[Ferrero, A. (2014) Minor Planet Bull. 41, 184-185.]
geometric albedo albedo 0.238   0.043 urn:nasa:pds:neowise_diameters_albedos::2.0[mainbelt] (http://adsabs.harvard.edu/abs/2014ApJ...791..121M)  
B-V BV 0.960   0.020 EAR-A-5-DDR-UBV-MEAN-VALUES-V1.2 #obs=1; phase=13.18 deg.
U-B UB 0.500   0.030 EAR-A-5-DDR-UBV-MEAN-VALUES-V1.2 #obs=1; phase=13.18 deg.

684 Hildburg (A909 PB)          Discovered 1909-Aug-08 by Kopff, A. at Heidelberg
Reference: DISCOVERY.DBLast Updated: 2003-08-29

Alternate Designations
 A909 PB = 1928 PB = 1938 CT 
Ephemeris | Orbit Diagram | Orbital Elements | Mission Design | Physical Parameters | Discovery Circumstances ]
ABOUT SSD CREDITS/AWARDS PRIVACY/COPYRIGHT GLOSSARY LINKS
FirstGov 2021-Jan-18 06:56 UT
(server date/time)  
NASA Home Page
Site Manager:   Ryan S. Park
Webmaster  Alan B. Chamberlin